| time (UTC) | temp F | wind direction | speed MPH | gust MPH | rain 1hr in | rain 24hr in | rain mn in | humidity % | barometer mb |
| 20260505000059 | 60 | 0 | 0.0 | 4.0 | 0.00 | 0.02 | 0.02 | 45 | 1018.9 |
| 20260504234549 | 60 | 236 | 1.0 | 7.0 | 0.00 | 0.02 | 0.02 | 45 | 1018.6 |
| 20260504233055 | 60 | 313 | 2.0 | 10.0 | 0.00 | 0.02 | 0.02 | 45 | 1018.4 |
| 20260504231548 | 60 | 268 | 2.0 | 7.0 | 0.00 | 0.02 | 0.02 | 43 | 1018.4 |
| 20260504230059 | 60 | 259 | 1.0 | 5.0 | 0.00 | 0.02 | 0.02 | 43 | 1018.3 |
| 20260504224552 | 61 | 259 | 2.0 | 11.0 | 0.00 | 0.02 | 0.02 | 43 | 1018.3 |
| 20260504223100 | 60 | 286 | 2.0 | 8.0 | 0.00 | 0.02 | 0.02 | 41 | 1018.4 |
| 20260504221550 | 60 | 256 | 1.0 | 9.0 | 0.00 | 0.02 | 0.02 | 41 | 1018.3 |
| 20260504220052 | 62 | 283 | 2.0 | 7.0 | 0.00 | 0.02 | 0.02 | 39 | 1018.0 |
| 20260504214607 | 64 | 202 | 2.0 | 9.0 | 0.00 | 0.02 | 0.02 | 36 | 1017.4 |
| 20260504213058 | 67 | 278 | 2.0 | 10.0 | 0.00 | 0.02 | 0.02 | 32 | 1017.1 |
| 20260504211554 | 66 | 130 | 1.0 | 4.0 | 0.00 | 0.02 | 0.02 | 32 | 1017.1 |
| 20260504210058 | 66 | 139 | 0.0 | 2.0 | 0.00 | 0.02 | 0.02 | 35 | 1017.1 |
| 20260504204553 | 67 | 98 | 2.0 | 4.0 | 0.00 | 0.02 | 0.02 | 34 | 1017.5 |
| 20260504203053 | 63 | 111 | 0.0 | 3.0 | 0.00 | 0.02 | 0.02 | 41 | 1017.7 |
| 20260504201601 | 61 | 0 | 1.0 | 5.0 | 0.02 | 0.02 | 0.02 | 41 | 1018.3 |
| 20260504200053 | 60 | 301 | 2.0 | 4.0 | 0.02 | 0.02 | 0.02 | 48 | 1018.9 |
| 20260504194554 | 59 | 94 | 2.0 | 8.0 | 0.02 | 0.02 | 0.02 | 55 | 1018.2 |
| 20260504193052 | 60 | 111 | 2.0 | 8.0 | 0.02 | 0.02 | 0.02 | 52 | 1018.8 |
| 20260504191558 | 65 | 75 | 2.0 | 11.0 | 0.00 | 0.00 | 0.00 | 40 | 1018.4 |
| 20260504190112 | 68 | 133 | 2.0 | 8.0 | 0.00 | 0.00 | 0.00 | 22 | 1017.4 |
| 20260504184613 | 69 | 0 | 0.0 | 4.0 | 0.00 | 0.00 | 0.00 | 22 | 1017.1 |
| 20260504183052 | 69 | 0 | 0.0 | 7.0 | 0.00 | 0.00 | 0.00 | 22 | 1017.2 |
| 20260504181552 | 69 | 0 | 1.0 | 5.0 | 0.00 | 0.00 | 0.00 | 22 | 1017.1 |
| 20260504180054 | 70 | 0 | 0.0 | 8.0 | 0.00 | 0.00 | 0.00 | 23 | 1017.2 |
| 20260504174554 | 71 | 0 | 1.0 | 4.0 | 0.00 | 0.00 | 0.00 | 22 | 1017.5 |
| 20260504173057 | 73 | 325 | 1.0 | 7.0 | 0.00 | 0.00 | 0.00 | 21 | 1017.8 |
| 20260504171605 | 73 | 67 | 1.0 | 6.0 | 0.00 | 0.00 | 0.00 | 24 | 1017.9 |
| 20260504140110 | 54 | 0 | 0.0 | 3.0 | 0.00 | 0.00 | 0.00 | 34 | 1019.3 |
| 20260504120115 | 45 | 0 | 0.0 | 0.0 | 0.00 | 0.00 | 0.00 | 45 | 1018.6 |
| 20260504110104 | 45 | 0 | 0.0 | 3.0 | 0.00 | 0.00 | 0.00 | 48 | 1019.0 |
| 20260504081601 | 50 | 0 | 0.0 | 1.0 | 0.00 | 0.00 | 0.00 | 41 | 1020.1 |
| 20260504060105 | 59 | 61 | 1.0 | 7.0 | 0.00 | 0.00 | 0.00 | 29 | 1020.7 |
| 20260504044554 | 60 | 229 | 1.0 | 4.0 | 0.00 | 0.00 | 0.00 | 28 | 1020.9 |
| 20260504043051 | 60 | 0 | 0.0 | 2.0 | 0.00 | 0.00 | 0.00 | 28 | 1020.7 |
| 20260504041551 | 61 | 0 | 0.0 | 2.0 | 0.00 | 0.00 | 0.00 | 28 | 1020.9 |
| 20260504040059 | 61 | 246 | 0.0 | 3.0 | 0.00 | 0.00 | 0.00 | 28 | 1021.0 |
| 20260504034556 | 62 | 0 | 0.0 | 4.0 | 0.00 | 0.00 | 0.00 | 28 | 1021.3 |
| 20260504033108 | 61 | 234 | 0.0 | 5.0 | 0.00 | 0.00 | 0.00 | 28 | 1021.1 |
| 20260504031601 | 61 | 249 | 0.0 | 2.0 | 0.00 | 0.00 | 0.00 | 28 | 1021.3 |
| 20260504030052 | 61 | 0 | 0.0 | 0.0 | 0.00 | 0.00 | 0.00 | 30 | 1021.1 |
| 20260504024600 | 62 | 0 | 0.0 | 0.0 | 0.00 | 0.00 | 0.00 | 30 | 1021.0 |
| 20260504023054 | 62 | 0 | 0.0 | 2.0 | 0.00 | 0.00 | 0.00 | 29 | 1021.0 |
| 20260504021555 | 63 | 0 | 0.0 | 0.0 | 0.00 | 0.00 | 0.00 | 29 | 1021.1 |
| 20260504020053 | 63 | 0 | 0.0 | 0.0 | 0.00 | 0.00 | 0.00 | 28 | 1021.0 |
| 20260504014557 | 64 | 0 | 0.0 | 0.0 | 0.00 | 0.00 | 0.00 | 28 | 1020.8 |
| 20260504013105 | 65 | 0 | 0.0 | 2.0 | 0.00 | 0.00 | 0.00 | 27 | 1020.7 |
| 20260504011551 | 65 | 0 | 0.0 | 5.0 | 0.00 | 0.00 | 0.00 | 27 | 1020.6 |
| 20260504010048 | 66 | 0 | 0.0 | 6.0 | 0.00 | 0.00 | 0.00 | 27 | 1020.7 |
| 20260504004611 | 66 | 0 | 0.0 | 3.0 | 0.00 | 0.00 | 0.00 | 27 | 1020.8 |
| 20260504003047 | 66 | 165 | 0.0 | 7.0 | 0.00 | 0.00 | 0.00 | 25 | 1020.8 |
| 20260504001556 | 67 | 32 | 1.0 | 7.0 | 0.00 | 0.00 | 0.00 | 25 | 1021.0 |